Back to catalog

IRIDIUM 45

AliveCommunicationsPO
NORAD 25104·PAYLOAD·🇺🇸 United States

Launched Dec 20, 1997 from Vandenberg Space Force Base

Loading…

Next Passes (next 24 hours)

TLE

FreshSource: Space-Track

Epoch: Sep 14, 2026, 01:16 UTC

1 25104U 97082A   26257.05310437  .00037463  00000-0  67428-3 0  9996
2 25104  86.3543 183.2719 0073366  42.8943 317.8004 15.46623818521622

Track IRIDIUM 45 in real time with AllMySat

Download on the App Store